Lapse_Rate
8.3 8.4 8.3 8.9 9.4 9.5 9.5 9.3 8.9 8.2 8.4 9.0 9.0 9.6 9.3 7.8 7.2 6.9 6.9 6.8 6.8 6.8 7.8 7.3 6.6 6.5 7.1 7.9 7.8 7.3 6.7 6.6 8.5 8.9 6.1 4.4 4.0 2.9
8.0 8.0 8.2 9.0 9.6 9.7 9.7 9.7 9.5 9.1 8.3 9.2 9.4 9.5 9.5 9.5 7.8 7.0 6.9 7.3 6.9 7.3 9.2 9.4 9.2 8.5 8.1 8.1 8.8 9.3 8.9 9.2 9.1 7.7 7.3 6.9 5.8 2.6
8.0 8.7 9.1 9.1 9.2 9.5 9.7 9.7 9.5 9.4 8.8 9.3 9.7 9.8 9.6 9.3 8.8 8.5 7.6 6.8 7.1 8.2 9.5 9.6 9.5 9.5 9.5 9.5 9.5 9.4 9.4 9.3 9.3 8.8 7.8 7.6 8.4 5.7
8.8 9.2 9.3 9.8 9.6 9.7 9.7 9.6 9.6 9.6 9.2 8.8 9.5 9.4 9.5 9.8 9.6 9.1 9.1 9.3 9.3 8.1 9.0 9.6 9.6 9.7 9.7 9.6 9.6 9.4 9.4 9.4 9.3 9.3 9.2 9.0 8.9 8.7
9.0 9.5 9.6 9.7 9.6 9.7 9.6 9.6 9.7 9.9 9.5 9.2 9.1 9.6 9.6 9.6 9.4 9.7 9.8 9.7 9.6 9.7 9.7 9.5 9.5 9.5 9.6 9.6 9.6 9.6 9.5 9.3 9.2 9.4 9.3 8.8 9.1 8.5
9.7 9.8 9.8 9.7 9.7 9.7 9.8 9.6 9.8 9.5 9.5 9.2 9.2 9.1 9.2 9.4 9.3 9.1 9.0 9.4 9.4 9.6 9.6 9.6 9.6 9.3 9.5 9.7 9.7 9.6 9.6 9.6 9.4 9.2 9.4 9.4 9.3 8.3
9.9 9.9 9.9 9.8 9.7 9.6 9.5 8.8 8.6 8.4 8.6 8.8 8.7 8.6 8.9 8.9 8.8 9.1 8.7 9.2 9.4 9.5 9.4 9.4 9.1 9.6 9.6 9.5 9.7 9.7 9.7 9.6 9.6 9.5 9.5 9.4 9.4 9.3
9.5 9.7 9.9 9.7 9.8 9.7 9.6 9.4 9.3 7.7 7.6 7.3 8.5 8.7 8.6 8.9 9.2 9.0 8.9 8.7 8.4 9.7 9.2 9.1 9.5 8.7 9.4 9.7 9.6 9.7 9.6 9.6 9.6 9.6 9.5 9.5 9.5 9.4
9.6 9.6 9.9 10.3 9.7 10.1 9.8 9.7 9.6 9.4 9.5 8.6 8.0 8.5 8.7 8.9 9.3 9.1 9.1 8.9 8.8 9.3 9.2 8.7 9.0 8.9 8.6 9.3 9.6 9.5 9.5 9.5 9.5 9.5 9.6 9.5 9.4 9.4
9.7 9.8 9.7 9.8 9.9 9.8 9.8 9.7 9.7 9.8 9.8 10.1 9.7 9.6 9.7 9.7 9.6 9.4 9.0 8.9 8.6 8.6 8.9 8.4 8.6 8.7 9.0 9.0 9.5 9.6 9.7 9.7 9.6 9.6 9.6 9.5 9.5 9.5
10.0 10.0 10.0 9.9 9.9 9.9 9.7 9.3 9.2 9.1 9.6 9.6 9.5 9.5 9.5 9.4 9.4 9.0 8.2 7.2 7.9 8.6 8.8 8.7 8.5 8.5 8.9 9.0 9.5 9.6 9.7 9.7 9.7 9.6 9.6 9.6 9.7 9.6
9.7 10.0 9.9 9.8 10.0 10.0 9.4 8.9 8.3 8.5 8.9 9.2 9.5 9.5 9.5 9.5 9.7 9.1 8.7 8.3 8.4 8.1 8.4 8.2 8.6 8.6 8.0 8.7 8.4 8.8 9.2 9.6 9.6 9.6 9.6 9.6 9.5 9.2
9.8 9.9 10.1 10.0 9.9 9.7 9.7 9.1 8.3 8.6 9.0 8.9 8.5 8.6 9.0 9.1 9.1 9.1 8.8 8.6 7.7 7.8 9.0 8.9 8.2 8.3 8.2 8.1 8.1 8.1 9.1 9.2 9.4 9.4 9.6 9.6 9.6 9.5
9.1 9.7 9.7 9.9 9.9 9.7 9.5 9.5 9.6 9.4 8.9 8.7 8.5 8.0 8.3 9.0 9.1 9.3 9.5 9.5 9.5 9.2 9.2 8.9 8.1 8.3 8.0 7.9 7.9 7.6 8.4 8.9 9.2 9.0 9.1 9.5 9.5 9.5
9.8 9.6 9.8 9.7 9.5 9.4 9.3 9.2 9.3 8.8 8.8 8.7 8.6 8.7 9.0 9.3 9.4 9.1 9.2 9.0 8.8 8.6 8.8 8.6 8.7 8.3 8.0 8.0 7.9 8.0 8.1 8.4 8.8 8.7 8.7 8.8 8.8 8.9
9.9 9.8 9.7 9.7 9.6 9.3 9.4 9.3 9.0 9.4 9.1 9.0 9.0 9.2 9.1 9.0 9.0 9.0 8.7 8.7 8.5 8.5 8.7 9.0 9.0 8.7 8.1 8.1 8.1 7.9 8.4 7.9 8.5 8.6 8.7 8.7 8.8 8.9
9.2 8.7 8.5 8.5 8.5 8.8 9.0 8.8 9.1 9.5 9.2 9.0 8.9 9.1 9.3 9.3 9.2 9.1 8.8 8.6 8.3 8.3 8.3 8.7 9.0 9.0 8.7 8.5 8.0 8.2 8.3 8.2 8.2 8.5 8.5 8.2 8.3 8.3
8.5 8.0 8.2 8.4 7.9 8.1 8.4 9.1 9.2 9.1 9.0 9.3 9.3 9.3 9.3 9.0 8.7 8.7 8.7 8.3 8.3 8.4 8.4 8.4 8.4 8.3 8.3 8.5 9.1 8.1 8.1 8.1 8.3 8.2 8.4 8.1 8.0 7.9
7.6 7.6 7.0 7.0 7.1 7.7 8.2 8.2 8.0 8.4 8.8 9.0 9.3 8.9 8.8 8.6 8.7 8.1 8.3 8.4 8.2 8.4 8.4 8.6 8.3 7.8 7.3 7.3 8.3 9.6 8.2 8.3 8.4 8.2 8.2 8.0 7.8 7.7
7.8 7.2 7.2 7.0 7.0 6.9 6.9 6.8 6.6 6.7 7.1 7.7 8.4 8.3 7.9 7.9 7.7 7.6 7.8 7.9 8.0 8.0 8.0 8.2 8.2 8.0 7.6 7.5 7.6 8.2 9.7 8.7 8.4 8.1 8.1 8.2 8.4 9.1
7.4 7.9 7.5 6.6 6.2 6.1 5.8 5.8 6.0 5.9 6.3 6.4 6.4 6.6 6.7 7.3 7.2 7.5 7.8 8.6 8.6 7.9 7.7 7.9 8.1 9.3 8.4 8.1 7.2 7.4 7.7 8.7 9.0 8.3 8.1 7.9 7.9 8.0
8.0 8.0 6.9 6.4 6.2 5.7 5.6 5.6 5.5 5.5 5.3 5.5 5.7 5.8 5.9 6.2 6.7 7.1 7.7 7.7 7.6 7.8 7.8 7.9 7.8 8.1 8.2 7.7 7.5 7.7 8.0 8.3 9.1 10.0 9.9 9.2 7.8 7.1
7.3 7.0 6.7 6.6 6.3 6.1 5.9 5.6 5.4 5.1 5.0 4.9 4.9 4.9 5.2 5.5 5.9 7.1 7.4 7.7 7.8 7.8 7.7 7.7 7.8 8.1 7.9 7.8 8.0 7.7 7.7 7.8 8.1 8.1 8.2 9.5 10.0 10.0
Wind_Speed
8 8 7 6 7 6 6 7 8 9 9 8 8 11 12 14 16 18 19 21 24 24 23 24 24 26 26 26 26 27 27 27 26 24 27 27 28 26
8 9 9 6 7 7 7 7 8 9 11 7 8 9 15 16 19 20 20 23 22 23 22 23 24 25 27 28 28 26 27 26 27 29 28 27 28 26
11 10 11 10 7 7 7 7 8 8 11 9 8 10 12 12 16 18 19 20 19 22 24 25 26 25 26 27 28 28 28 29 29 29 29 28 26 23
11 11 11 9 11 10 8 11 9 10 10 13 10 9 11 13 15 16 17 18 18 23 26 25 25 26 28 29 31 32 31 31 31 29 26 23 23 25
12 12 12 11 11 9 10 9 9 9 9 9 10 8 9 9 10 14 12 16 19 23 23 27 29 30 28 29 29 30 30 29 28 26 30 28 31 32
12 12 12 12 12 12 11 11 10 10 10 10 10 9 9 10 9 10 11 8 8 17 23 27 29 30 30 29 29 28 25 28 29 29 29 29 30 31
12 13 15 18 23 20 10 11 11 10 10 11 11 9 10 10 11 8 10 10 10 12 10 12 17 17 20 26 25 27 28 28 29 31 32 32 33 33
13 13 16 22 22 27 28 30 21 13 13 9 10 12 13 11 10 10 10 11 12 12 11 11 15 12 17 19 27 31 32 31 32 33 33 34 34 34
14 13 13 13 21 14 21 27 24 26 25 15 14 14 15 14 13 13 14 12 13 10 12 14 11 12 20 23 29 31 32 35 34 34 34 35 35 35
14 15 15 16 14 16 15 15 15 14 14 11 15 15 15 16 15 14 15 15 14 12 14 14 12 13 13 19 30 34 36 37 38 38 37 37 36 36
14 15 14 16 22 27 17 16 15 15 25 33 35 35 37 38 34 15 12 11 12 12 11 13 12 12 12 11 20 31 34 36 37 37 37 38 38 37
13 15 26 22 28 29 18 16 16 17 16 16 15 21 26 26 34 21 12 13 13 14 11 10 11 11 13 12 12 18 19 27 33 36 36 36 35 21
11 11 11 25 28 28 27 15 16 15 18 15 13 12 12 13 12 18 18 12 11 11 13 13 11 11 11 13 14 13 12 15 16 22 30 35 38 32
14 12 14 27 29 30 24 27 30 26 13 12 12 11 10 10 9 9 15 16 18 14 20 18 11 11 12 13 15 14 12 11 12 12 13 26 34 36
12 18 29 30 31 27 30 29 27 12 11 9 10 9 9 9 11 11 17 20 21 24 25 24 12 13 12 13 15 14 16 13 11 12 12 13 13 12
18 15 19 23 28 23 20 15 9 9 9 8 8 9 9 10 11 10 11 10 11 13 19 24 18 15 14 14 14 16 13 15 11 12 12 12 13 12
14 10 10 11 11 11 10 10 8 7 7 8 10 11 11 11 11 10 11 11 12 13 14 12 17 18 15 18 15 15 15 15 14 14 13 14 14 14
14 11 11 12 11 9 7 6 7 10 9 10 11 12 11 10 11 11 11 12 13 14 14 13 12 13 14 17 26 16 16 16 14 15 15 15 16 15
10 8 1 2 3 5 6 7 8 8 10 10 11 10 11 11 15 11 12 12 13 14 14 13 13 13 15 18 16 28 16 15 14 14 14 15 17 17
5 2 2 2 4 5 6 7 8 8 9 10 10 11 11 11 11 12 13 14 14 15 14 13 13 14 16 19 19 16 26 17 14 15 15 14 18 33
3 4 2 3 4 5 6 7 8 9 10 10 11 11 11 11 12 13 14 25 25 16 17 16 16 30 16 17 17 17 16 33 29 20 18 17 18 16
4 4 3 5 5 5 6 7 8 10 10 11 11 11 11 12 13 15 15 16 16 16 16 16 17 15 15 17 21 24 18 17 26 35 37 35 16 19
3 3 5 6 6 7 7 8 9 11 11 11 12 12 12 13 14 15 16 17 17 17 18 17 16 15 18 18 25 20 27 23 17 17 18 35 39 42
Wind_Direction
276 277 275 272 270 268 264 266 276 286 281 290 294 292 306 304 298 309 307 307 314 311 312 313 315 315 314 314 312 310 308 307 304 306 303 305 304 308
285 285 281 276 275 271 267 264 263 270 278 276 281 291 292 294 296 302 299 307 304 307 308 310 310 309 309 309 307 305 305 304 306 302 301 299 294 298
279 277 277 280 275 274 272 266 264 265 271 274 275 284 288 289 289 291 298 299 295 303 306 306 306 303 304 304 304 305 304 302 300 299 297 297 303 299
278 278 276 276 273 269 267 264 264 267 273 279 280 283 276 280 290 287 286 285 290 299 302 303 300 303 303 302 300 299 298 298 297 295 296 297 297 299
275 274 275 274 273 270 269 269 268 269 272 276 279 276 273 269 275 270 280 283 290 287 295 302 302 301 297 297 295 295 294 294 292 294 295 291 293 293
274 272 272 271 270 272 271 271 269 268 266 269 273 280 278 271 280 286 277 285 287 299 294 293 293 294 294 294 292 289 290 292 290 289 289 288 289 290
275 272 269 264 263 260 256 256 262 265 266 266 265 277 283 278 271 281 295 283 284 287 283 281 287 285 284 289 287 285 284 284 285 286 288 288 288 285
279 276 273 275 275 274 271 268 260 254 253 264 272 268 276 283 287 290 288 282 282 276 277 281 283 286 286 278 280 284 286 283 284 284 285 285 283 283
274 276 278 275 276 275 275 276 276 274 272 273 275 272 276 273 274 276 276 277 278 287 286 283 281 279 280 279 282 284 287 289 284 280 281 281 280 278
270 270 270 271 268 270 268 269 270 269 267 266 265 266 266 270 268 268 272 276 279 277 272 275 280 278 280 278 277 280 284 284 282 280 278 277 278 279
271 271 272 273 273 273 271 271 272 272 270 270 272 273 272 272 273 273 270 272 278 278 276 276 280 278 277 282 283 287 287 286 285 282 280 279 277 275
273 274 273 270 268 266 264 263 262 262 264 264 265 272 276 276 277 282 283 275 279 277 267 270 282 286 288 284 287 284 282 284 285 284 282 278 276 274
267 268 267 270 271 271 269 261 258 261 264 273 274 270 267 267 268 264 264 263 271 272 271 277 281 284 280 286 284 280 279 277 277 277 277 276 274 272
263 264 265 270 272 271 271 270 269 271 271 272 273 271 270 273 271 271 270 273 272 273 276 275 277 274 276 278 276 284 274 271 270 272 272 273 274 272
265 264 267 267 266 268 274 276 276 273 271 276 278 274 276 283 289 285 281 277 273 269 269 269 266 268 265 267 273 274 278 274 269 269 268 267 270 269
271 273 271 269 265 263 267 271 271 271 268 268 279 285 288 284 277 274 275 276 274 274 270 268 262 260 264 260 263 271 269 274 269 264 265 265 262 261
258 256 255 257 259 264 271 273 273 277 285 288 283 280 279 279 275 276 275 277 274 275 276 271 263 258 258 260 264 265 269 266 266 265 265 265 262 259
262 262 259 260 250 240 251 273 281 285 281 279 273 271 271 276 281 280 277 274 273 272 272 271 270 270 266 260 251 262 262 262 262 262 257 260 265 259
269 275 242 263 263 268 274 275 276 274 278 276 275 276 275 274 279 276 274 274 274 272 270 270 267 265 269 269 268 252 262 262 261 258 253 250 258 260
263 229 240 240 258 260 264 269 275 277 273 272 271 270 268 269 272 271 272 272 274 274 273 268 263 260 259 264 272 268 256 265 261 260 258 255 255 257
274 258 231 246 254 258 269 277 275 274 272 269 264 263 264 267 270 270 271 274 276 276 275 271 264 263 265 269 267 265 257 250 250 255 258 258 261 262
252 250 243 256 261 269 275 275 275 273 271 267 265 265 265 265 267 269 270 271 272 269 268 269 270 267 263 260 264 267 266 263 260 257 253 248 251 254
248 262 265 266 269 270 270 270 269 269 266 266 266 267 268 269 267 268 270 271 271 270 269 269 266 263 259 259 261 266 263 264 261 258 253 252 256 259